Flag for Anguilla Weather past 2 weeks in The Valley, Anguilla

Now
82 °F

Passing clouds.


Feels Like: 89 °F
Forecast: 82 / 87 °F
Wind: 12 mph from Northeast

Location: Juliana Airport - Saint Maarten

Current Time: Aug 21, 2014 at 5:06:32 AM

Latest Report: Aug 21, 2014 at 4:00 AM


Visibility: N/A

Pressure: 29.95 "Hg

Humidity: 79%

Dew point: 75 °F

Location of The ValleyLocation

Historic Weather in The Valley — Graph

°F

The Valley temperature yesterday

Maximum temperature yesterday: 90 °F (at 2:00 PM)
Minimum temperature yesterday: 82 °F (at 12:00 AM)
Average temperature yesterday: 85 °F

Past Weeks' High & Low Weather Summary

 TemperatureHumidityPressure
High90 °F (Aug 18, 2:00 PM)89% (Aug 8, 7:00 PM)30.09 "Hg (Aug 8, 7:00 PM)
Low77 °F (Aug 8, 8:00 PM)52% (Aug 18, 2:00 PM)29.92 "Hg (Aug 19, 4:00 AM)
Average84 °F73%30.02 "Hg
* Reported Aug 6 4:00 AM — Aug 21 4:00 AM, The Valley, Weather by CustomWeather, © 2014

Note: Actual official high and low records may vary slightly from our data, if they occured in-between our weather recording intervals... More about our weather records

Advertising

The Valley weather history for previous 24 hours

 ConditionsComfort  
Time TempWeatherWind HumidityBarometerVisibility
4:00 AM
Aug 21
82 °FPassing clouds.12 mph79%29.95 "HgN/A
3:00 AM82 °FPartly cloudy.13 mph79%29.95 "HgN/A
2:00 AM82 °FPassing clouds.10 mph79%29.98 "HgN/A
1:00 AM82 °FPassing clouds.13 mph74%29.98 "HgN/A
12:00 AM82 °FPassing clouds.12 mph74%30.01 "HgN/A
11:00 PM
Aug 20
84 °FPassing clouds.13 mph70%30.04 "HgN/A
10:00 PM84 °FPassing clouds.15 mph70%30.04 "HgN/A
9:00 PM82 °FPassing clouds.13 mph74%30.04 "HgN/A
8:00 PM84 °FPassing clouds.12 mph70%30.01 "HgN/A
7:00 PM84 °FPassing clouds.12 mph74%30.01 "HgN/A
6:00 PM86 °FPassing clouds.12 mph70%29.98 "HgN/A
5:00 PM86 °FPassing clouds.15 mph66%29.98 "HgN/A
4:00 PM88 °FPartly sunny.12 mph62%29.98 "HgN/A
3:00 PM90 °FScattered clouds.15 mph59%29.98 "HgN/A
2:00 PM90 °FScattered clouds.15 mph55%29.98 "HgN/A
1:00 PM88 °FScattered clouds.12 mph59%30.01 "HgN/A
12:00 PM88 °FScattered clouds.15 mph59%30.01 "HgN/A
11:00 AM88 °FScattered clouds.15 mph59%30.01 "HgN/A
10:00 AM86 °FScattered clouds.14 mph66%30.01 "HgN/A
9:00 AM86 °FScattered clouds.14 mph66%30.01 "HgN/A
8:00 AM84 °FScattered clouds.12 mph74%30.01 "HgN/A
7:00 AM82 °FScattered clouds.12 mph79%29.98 "HgN/A
6:00 AM82 °FPassing clouds.12 mph79%29.98 "HgN/A
5:00 AM82 °FPassing clouds.10 mph79%29.95 "HgN/A
Weather by CustomWeather, © 2014

See weather overviewHow to use our weather pages